Temperature
29 29 30 29 29 29 29 30 30 29 29 28 28 28 26 25 25 24 24 23 22 22 21 20 20 20 19 19 19 19 19 18 18 18 18 18 18 18 18 17 17 17 17 17
28 29 29 29 29 29 29 29 29 29 28 28 27 26 25 24 24 24 23 22 22 21 20 20 19 19 19 19 19 19 19 19 18 18 18 18 17 17 17 17 17 17 17 17
28 28 28 28 28 29 28 29 29 28 28 27 26 25 24 23 23 22 22 21 21 20 20 19 19 19 19 19 19 19 19 18 18 18 18 18 17 17 17 17 17 17 17 17
28 27 26 28 28 28 28 28 28 27 27 26 25 24 23 22 22 21 21 20 20 20 20 19 19 19 19 19 19 18 18 18 18 18 18 18 17 17 17 17 17 17 17 16
27 27 27 27 27 27 27 27 27 26 26 25 24 24 23 21 20 20 20 19 19 19 19 19 19 18 18 18 18 18 17 17 17 17 17 17 17 17 17 16 16 16 16 16
26 26 27 27 27 26 26 26 26 25 25 24 24 26 24 21 20 19 19 19 18 19 18 18 18 18 18 17 17 17 17 17 17 17 17 16 16 16 16 16 16 16 16 16
26 26 27 26 25 25 25 25 24 23 23 23 23 23 21 19 19 18 18 18 18 18 18 18 17 17 17 17 17 16 16 16 16 16 16 16 16 16 16 15 15 15 15 15
26 26 26 24 25 25 24 22 22 22 22 21 21 20 19 18 18 17 17 17 17 17 17 17 17 17 17 16 16 16 16 16 16 16 16 16 16 16 15 15 15 15 15 15
25 25 23 23 23 22 21 21 21 21 21 20 20 19 18 18 17 17 17 17 17 17 16 17 16 16 16 16 16 16 16 15 15 16 16 15 15 15 15 15 15 15 15 15
23 23 22 21 21 21 20 20 20 20 19 19 19 18 18 17 17 17 16 16 16 16 16 16 16 16 15 15 15 15 15 15 15 15 15 15 15 15 15 15 14 14 14 14
22 22 21 21 20 20 19 19 19 19 19 18 18 17 17 17 16 16 16 16 16 15 15 15 15 15 15 15 15 15 14 14 14 14 15 14 14 14 14 14 14 14 14 14
23 22 22 21 20 19 19 18 18 18 18 18 17 17 16 16 16 15 15 15 15 15 15 14 14 14 14 14 14 14 14 14 14 14 14 14 14 14 14 14 14 14 13 13
20 20 20 19 19 18 18 18 18 17 17 17 17 16 16 15 15 15 15 15 14 14 14 14 14 14 14 14 14 14 14 14 14 14 14 14 14 14 14 13 13 13 13 13
18 18 18 18 18 18 18 17 17 17 17 16 16 16 15 15 15 15 14 14 14 14 14 14 14 14 13 13 13 13 13 14 14 14 13 13 13 13 13 13 13 13 13 13
17 18 18 18 17 17 17 17 17 16 16 16 15 15 15 15 14 14 14 14 14 14 13 13 13 13 13 13 13 13 13 13 13 13 13 13 13 13 13 13 13 12 12 12
17 17 17 17 17 17 17 16 16 16 16 15 15 15 15 14 14 14 13 13 13 13 13 13 13 13 13 13 13 12 12 13 12 12 12 12 12 12 12 12 12 12 12 12
17 17 17 17 16 16 16 16 16 15 15 15 15 14 14 14 14 13 13 13 13 13 12 12 12 12 12 12 12 12 12 12 12 12 12 12 12 12 12 11 11 11 11 11
16 17 17 16 16 16 15 15 15 15 15 15 14 14 14 14 13 13 13 12 12 12 12 12 12 12 12 12 11 12 12 12 12 11 11 11 11 11 11 11 11 11 11 11
16 16 16 16 16 15 15 15 15 15 14 14 14 14 14 13 13 13 12 12 12 12 12 12 12 12 11 11 11 11 11 11 11 11 11 11 11 11 11 10 10 10 10 10
15 15 15 15 15 15 15 15 14 14 14 14 14 13 13 13 13 12 12 12 12 12 12 12 11 11 11 11 11 11 11 11 11 11 11 11 10 10 10 10 10 10 10 10
14 14 14 14 14 14 14 14 14 14 13 13 13 13 13 12 12 12 12 12 12 12 11 11 11 11 11 11 11 11 11 11 11 10 10 10 10 10 10 10 10 9 9 9
14 14 14 14 14 14 13 13 13 13 13 13 13 13 12 12 12 12 11 11 11 11 11 11 11 11 11 10 10 10 10 10 10 10 10 10 10 10 10 9 9 9 9 9
13 13 13 13 13 13 13 13 13 13 13 12 12 12 12 12 12 11 11 11 11 11 11 11 11 10 10 10 10 10 10 10 10 10 10 9 9 9 9 9 9 8 8 8
12 13 13 13 13 13 13 12 12 12 12 12 11 11 11 11 11 11 11 11 10 10 10 10 10 10 10 10 9 9 9 9 9 9 9 9 9 8 8 8 8 8 8 7
12 12 12 12 12 12 12 12 12 12 12 11 11 11 11 11 11 11 10 10 10 10 10 10 10 10 9 9 9 9 9 9 9 9 9 8 8 8 8 8 8 8 7 7
12 12 12 12 12 12 12 12 12 12 12 12 11 11 11 10 10 10 10 10 10 9 9 9 9 9 9 9 9 9 9 9 8 8 8 8 8 8 8 7 7 7 7 7
12 11 11 12 12 12 12 12 12 11 11 11 11 10 10 10 10 10 9 9 9 9 9 9 9 9 8 8 8 8 8 8 8 8 8 8 8 7 7 7 7 6 6 6
Wind_Speed
5 4 5 6 7 8 8 8 8 5 4 4 2 1 1 2 3 3 3 3 3 3 3 3 3 2 2 2 3 3 3 3 3 2 2 3 4 4 4 5 5 5 4 4
7 7 7 6 7 7 7 7 6 5 5 1 1 2 2 2 2 2 2 2 3 3 3 3 2 2 2 2 3 3 3 3 3 3 3 4 4 4 5 5 5 5 5 4
8 8 9 9 7 8 7 7 7 7 4 3 2 2 2 2 2 2 2 2 2 2 2 1 1 2 2 2 2 2 2 2 3 3 3 3 3 4 4 5 5 4 5 5
7 7 11 3 0 4 5 4 4 3 2 2 2 2 2 2 2 2 2 2 2 1 0 1 1 2 2 2 2 2 2 2 2 3 3 3 3 3 4 4 4 4 5 6
8 10 8 5 3 3 4 4 2 3 3 3 3 3 4 3 2 2 2 2 2 1 1 1 1 1 1 1 1 2 2 2 2 2 3 3 3 4 4 4 5 5 5 5
9 10 9 4 2 2 4 5 1 1 2 3 4 4 1 4 3 3 3 3 3 2 2 1 1 1 1 2 2 2 2 2 2 2 2 3 3 3 3 4 4 5 4 4
11 10 6 2 2 4 6 1 3 1 0 1 1 2 3 3 3 3 3 4 4 3 2 1 1 0 1 1 1 2 2 1 2 2 2 3 3 3 3 3 3 4 4 4
10 11 6 3 3 3 1 3 2 1 1 1 2 2 3 3 3 3 3 4 4 3 3 2 1 1 0 1 2 1 1 2 2 2 3 2 1 2 2 3 3 4 4 4
3 2 3 2 2 2 2 2 1 1 1 2 2 2 2 2 2 2 3 3 3 3 3 3 3 2 1 2 2 2 2 1 2 1 1 2 2 2 2 3 3 3 4 4
2 3 3 3 3 3 3 2 2 2 2 2 3 3 2 2 2 2 2 2 3 3 3 3 3 3 3 3 2 2 2 1 1 1 1 1 2 2 2 2 3 3 3 3
4 3 3 3 2 2 3 3 3 2 2 2 3 3 2 2 2 2 3 3 3 4 4 4 4 4 4 3 2 1 1 1 1 1 1 1 1 2 2 1 2 3 3 3
4 4 3 3 3 2 2 2 2 2 2 2 3 3 2 2 2 2 2 3 4 4 4 4 4 4 4 4 3 2 1 1 2 1 1 1 1 1 2 1 2 1 3 5
1 1 1 2 3 2 2 2 1 2 2 2 3 3 3 3 2 2 3 3 3 3 3 4 4 4 4 4 3 2 2 2 2 2 2 2 2 2 1 0 2 2 2 2
1 1 2 3 3 2 2 2 2 2 3 3 3 2 3 3 2 2 2 2 2 2 3 3 3 4 4 3 3 2 2 2 2 2 2 2 3 3 3 3 2 1 2 4
3 3 3 3 3 3 3 3 3 3 3 3 3 3 2 2 2 2 1 1 2 2 3 3 3 3 4 3 3 3 2 2 2 2 2 2 3 3 3 3 3 3 3 0
2 2 4 4 5 4 3 3 3 2 2 3 3 3 2 2 2 2 1 2 2 3 4 4 3 4 4 3 3 2 2 3 2 2 2 2 2 3 3 3 3 3 4 4
4 4 4 4 4 4 3 3 3 3 3 2 2 2 2 2 1 1 2 2 2 3 3 3 4 4 4 3 3 3 2 2 1 2 2 2 3 3 3 3 3 3 3 4
2 3 3 3 3 3 3 2 2 3 3 2 2 2 2 1 0 1 1 1 2 2 3 3 3 3 3 3 3 3 2 2 2 2 2 2 3 3 3 3 3 4 3 2
1 1 2 2 2 2 2 2 2 2 3 3 3 2 2 1 0 0 0 1 1 1 2 3 3 3 3 4 3 2 2 2 2 2 2 2 2 3 3 4 4 4 4 4
1 2 2 2 2 2 1 1 1 1 1 2 2 2 1 1 1 1 1 1 1 2 2 3 3 3 3 3 3 3 3 3 3 2 2 3 3 3 3 4 4 4 4 4
2 2 3 2 2 1 1 1 1 1 1 1 2 2 2 1 1 1 2 2 1 2 2 2 2 2 3 3 3 3 3 3 3 3 3 3 3 3 3 4 4 4 4 4
1 1 2 2 2 2 2 1 1 1 1 1 1 1 1 1 1 1 2 2 1 1 2 2 2 3 4 5 3 3 3 3 3 3 3 3 3 3 3 4 4 4 4 5
1 1 1 2 2 2 2 2 2 1 1 0 1 1 1 2 2 2 2 1 1 2 2 2 3 4 5 4 3 3 3 3 3 3 3 3 4 4 4 4 4 4 4 5
1 1 1 1 2 2 2 1 1 1 1 1 1 1 2 2 2 2 2 0 1 2 2 1 2 3 5 3 3 3 3 4 4 3 3 3 3 3 4 4 4 5 5 6
1 1 1 2 2 2 2 2 2 2 2 2 1 2 2 2 2 1 1 1 0 1 1 1 2 2 3 3 3 3 3 3 4 4 4 4 4 4 4 5 5 5 5 6
1 1 1 1 1 1 2 2 1 1 1 1 1 1 1 1 1 1 1 1 1 1 1 1 1 2 2 3 3 3 3 3 3 4 4 4 5 5 5 5 6 6 6 6
2 2 2 2 1 1 1 1 1 1 1 1 1 1 1 1 1 1 1 1 1 1 2 1 1 2 2 3 3 3 3 3 3 3 4 4 4 5 5 6 5 5 6 6
Wind_Direction
258 258 239 225 223 225 239 258 262 252 241 235 231 205 150 118 122 125 121 120 116 110 109 116 124 133 145 159 170 183 198 209 213 215 221 232 224 219 215 216 218 217 222 230
231 224 220 233 236 233 237 248 251 246 252 265 111 115 122 116 117 113 107 108 112 107 105 111 123 141 155 171 180 183 194 204 207 209 216 224 222 218 213 212 218 218 216 221
232 216 222 232 239 236 234 239 239 250 247 180 173 147 136 129 105 79 69 66 82 107 113 127 170 182 180 180 183 185 191 202 210 213 216 220 227 227 225 219 214 216 218 218
233 220 233 225 185 240 228 236 253 253 224 192 176 142 120 106 89 65 40 33 24 16 137 193 196 197 203 191 186 190 204 214 225 229 226 222 231 235 238 238 231 226 226 225
231 229 229 205 192 214 225 229 232 231 208 182 166 166 134 84 66 45 18 1 342 333 346 345 237 213 207 215 211 218 234 239 249 250 243 236 242 246 245 243 241 238 235 230
231 240 240 201 163 226 239 220 127 213 203 195 207 230 113 72 65 47 33 22 13 15 5 11 11 165 202 217 227 246 253 256 258 259 263 260 258 261 255 246 248 249 242 235
230 239 237 83 130 192 228 214 67 80 112 216 219 1 62 76 65 44 33 28 27 35 32 30 34 146 200 233 264 279 281 267 263 278 266 254 256 255 256 249 247 248 243 235
229 237 230 96 169 207 40 61 80 79 109 113 95 81 91 84 75 56 40 34 35 38 31 31 41 49 327 320 319 318 311 313 315 310 294 296 272 254 246 243 235 237 235 239
241 237 79 112 112 86 94 90 75 93 96 120 131 121 103 90 78 58 37 27 32 36 29 25 30 25 356 351 345 324 303 299 298 284 289 306 285 263 251 240 247 252 251 249
198 152 121 115 113 106 88 81 70 91 103 119 129 132 123 106 79 52 36 25 19 29 27 24 20 18 7 3 358 344 320 300 288 277 282 317 305 292 285 285 276 271 269 270
200 174 159 149 136 109 90 82 83 86 98 118 129 126 105 95 73 53 34 26 25 28 27 20 15 13 12 12 13 22 347 332 298 268 280 297 319 331 306 322 330 293 292 288
225 187 209 177 158 137 129 115 105 96 91 99 116 117 100 85 73 59 50 46 37 26 19 17 16 16 15 14 21 9 6 352 321 310 309 280 276 321 42 16 61 21 330 314
253 248 264 171 162 159 153 137 125 124 123 118 112 109 104 93 83 71 60 44 31 20 14 11 9 13 15 14 15 8 356 356 339 341 329 312 304 292 296 248 194 215 226 258
195 178 172 176 168 157 149 133 120 122 125 120 109 102 102 99 84 64 51 37 27 19 12 10 8 9 5 7 11 7 8 28 1 345 336 326 312 303 298 300 301 307 211 195
213 224 202 175 164 156 151 146 140 137 134 126 120 111 102 93 77 53 42 31 32 26 23 18 15 6 358 3 8 4 9 16 10 359 342 337 326 319 325 329 327 325 332 352
201 185 175 169 165 166 165 164 162 159 152 139 131 119 110 97 80 62 53 40 26 22 18 12 6 359 354 355 358 351 5 39 14 354 350 345 336 335 336 337 337 341 339 343
182 180 175 170 170 173 177 180 180 174 162 155 150 140 135 122 104 77 41 28 24 18 14 8 357 351 344 337 331 334 346 12 354 315 336 343 338 335 334 330 332 338 338 359
196 193 191 186 183 185 190 189 188 184 170 175 172 168 166 167 153 61 23 21 27 22 15 5 356 345 341 335 328 325 323 322 315 326 340 343 342 330 324 323 324 327 334 350
167 172 174 173 173 182 195 195 190 187 181 176 181 181 180 182 187 290 309 340 349 347 360 356 352 335 343 345 331 298 301 307 315 325 322 331 314 322 330 329 329 334 339 341
115 127 138 137 133 149 172 169 158 161 176 179 185 196 197 218 219 231 263 279 324 345 343 342 331 334 336 336 315 300 299 300 311 317 314 314 323 330 331 329 329 330 332 334
117 133 140 141 132 115 113 126 131 136 151 202 203 208 218 223 222 235 270 284 339 349 326 312 312 328 330 331 294 308 310 311 314 312 312 318 325 329 333 334 334 333 334 334
114 134 141 137 132 123 108 101 97 119 152 183 201 199 207 223 236 252 270 293 306 338 313 312 327 6 343 316 313 321 316 313 309 313 319 323 322 320 324 327 326 329 333 333
158 161 146 142 141 135 134 132 121 110 88 274 251 247 250 270 277 276 278 301 294 303 298 331 10 10 322 306 317 308 306 308 310 312 316 321 319 318 320 320 320 321 324 325
196 177 159 154 153 154 150 143 142 132 164 242 246 257 260 259 269 284 308 74 276 278 296 37 34 329 296 303 302 296 296 297 297 306 313 312 313 316 317 316 317 320 320 318
203 187 174 175 185 180 164 183 179 171 210 231 229 230 243 255 268 285 302 287 169 245 255 148 181 265 283 309 309 304 297 307 313 313 310 311 308 307 311 313 316 316 315 315
199 198 177 200 212 213 206 209 223 228 232 230 229 225 234 232 210 223 231 211 204 225 258 242 241 257 293 310 315 316 316 314 304 300 311 308 310 314 317 317 315 315 315 317
197 191 201 204 184 181 204 230 246 262 271 285 293 281 259 242 208 215 236 246 246 254 261 260 271 289 301 309 316 317 315 316 319 318 316 317 320 320 322 323 323 324 322 325
Height
1482 1480 1480 1483 1484 1485 1486 1485 1488 1489 1489 1490 1491 1494 1498 1500 1501 1502 1504 1505 1505 1506 1507 1507 1508 1508 1509 1509 1510 1510 1510 1511 1511 1510 1510 1510 1510 1510 1510 1510 1510 1510 1511 1511
1486 1482 1482 1485 1483 1483 1485 1484 1485 1487 1490 1489 1493 1496 1498 1500 1501 1502 1503 1504 1505 1505 1506 1506 1507 1507 1507 1508 1508 1507 1507 1508 1508 1508 1508 1507 1507 1507 1507 1507 1507 1508 1508 1508
1486 1481 1484 1489 1483 1482 1483 1482 1483 1487 1488 1490 1493 1496 1498 1500 1501 1502 1503 1503 1504 1505 1505 1505 1505 1505 1506 1506 1506 1506 1505 1506 1505 1505 1505 1505 1505 1505 1505 1505 1504 1505 1505 1505
1484 1490 1500 1484 1479 1479 1481 1482 1483 1485 1488 1491 1494 1497 1499 1500 1502 1502 1503 1503 1503 1504 1504 1504 1504 1504 1504 1504 1504 1504 1503 1503 1503 1503 1503 1502 1502 1502 1502 1502 1502 1502 1502 1502
1484 1488 1487 1483 1481 1481 1483 1486 1485 1487 1489 1492 1494 1495 1497 1500 1501 1502 1502 1502 1503 1502 1502 1502 1502 1502 1502 1502 1502 1501 1501 1501 1501 1500 1500 1499 1499 1499 1499 1499 1499 1499 1499 1499
1485 1490 1490 1481 1480 1483 1485 1488 1487 1489 1490 1492 1493 1491 1495 1499 1500 1501 1501 1501 1501 1501 1500 1500 1500 1500 1499 1499 1499 1499 1498 1498 1498 1497 1496 1496 1496 1496 1496 1495 1495 1495 1495 1495
1483 1485 1478 1481 1482 1484 1491 1490 1490 1491 1492 1493 1494 1495 1498 1499 1500 1500 1500 1500 1499 1499 1499 1498 1498 1497 1497 1497 1497 1496 1496 1496 1495 1494 1494 1494 1493 1493 1493 1493 1493 1493 1492 1492
1480 1484 1485 1483 1483 1485 1489 1491 1491 1492 1493 1494 1496 1497 1498 1499 1499 1499 1499 1499 1498 1498 1497 1497 1496 1496 1495 1495 1495 1494 1493 1493 1492 1492 1492 1492 1491 1490 1490 1490 1490 1490 1490 1489
1478 1482 1485 1485 1487 1489 1490 1492 1492 1493 1494 1495 1496 1497 1498 1499 1499 1499 1499 1498 1498 1497 1496 1496 1495 1495 1494 1493 1492 1492 1491 1491 1491 1491 1490 1489 1489 1489 1488 1488 1488 1488 1488 1487
1481 1482 1485 1487 1489 1490 1491 1492 1493 1494 1494 1495 1496 1497 1498 1498 1499 1499 1498 1498 1497 1497 1496 1495 1494 1494 1492 1491 1490 1490 1490 1489 1489 1489 1488 1488 1487 1487 1487 1487 1487 1486 1486 1485
1482 1485 1487 1488 1490 1491 1492 1493 1493 1494 1495 1495 1496 1497 1498 1498 1498 1498 1498 1497 1497 1496 1495 1495 1494 1492 1491 1490 1489 1488 1488 1488 1488 1488 1487 1486 1486 1485 1485 1484 1484 1484 1483 1483
1479 1484 1485 1488 1490 1491 1492 1493 1494 1494 1495 1496 1496 1497 1497 1498 1498 1498 1497 1497 1496 1496 1495 1494 1493 1492 1491 1489 1488 1487 1486 1486 1486 1486 1486 1485 1485 1484 1482 1482 1481 1480 1480 1479
1483 1484 1486 1487 1489 1491 1492 1493 1494 1494 1495 1496 1496 1497 1497 1497 1498 1498 1497 1497 1496 1496 1495 1494 1493 1492 1490 1488 1487 1486 1485 1485 1485 1484 1484 1483 1483 1483 1481 1480 1479 1478 1477 1476
1484 1485 1486 1487 1489 1490 1491 1492 1493 1494 1495 1495 1496 1496 1496 1497 1497 1497 1497 1496 1496 1495 1494 1493 1492 1491 1489 1488 1487 1486 1485 1484 1483 1483 1483 1482 1482 1481 1480 1479 1478 1476 1475 1473
1483 1484 1485 1486 1488 1489 1491 1492 1492 1493 1494 1494 1495 1495 1496 1496 1497 1496 1496 1496 1495 1494 1493 1492 1491 1490 1489 1488 1486 1486 1485 1483 1482 1482 1481 1481 1480 1479 1478 1477 1476 1474 1473 1472
1483 1484 1484 1485 1487 1488 1490 1491 1492 1492 1493 1494 1494 1495 1495 1496 1496 1496 1495 1495 1494 1493 1492 1491 1490 1489 1488 1487 1486 1485 1484 1482 1481 1481 1480 1479 1478 1477 1476 1475 1474 1472 1471 1470
1482 1482 1483 1484 1486 1487 1488 1489 1491 1491 1492 1493 1493 1494 1494 1495 1495 1495 1494 1494 1493 1492 1491 1490 1489 1488 1487 1486 1485 1485 1483 1482 1481 1480 1480 1478 1477 1476 1475 1474 1472 1471 1470 1468
1481 1482 1482 1483 1484 1486 1487 1488 1489 1490 1491 1492 1492 1493 1493 1493 1493 1493 1493 1493 1492 1491 1490 1489 1488 1487 1486 1485 1484 1484 1483 1481 1481 1480 1479 1477 1476 1475 1474 1472 1471 1470 1468 1467
1481 1482 1482 1483 1484 1485 1486 1487 1488 1489 1490 1490 1491 1491 1492 1492 1492 1492 1492 1491 1491 1490 1490 1489 1487 1486 1485 1484 1483 1482 1481 1481 1480 1479 1478 1476 1475 1474 1473 1471 1470 1468 1467 1465
1480 1481 1482 1483 1483 1484 1485 1486 1487 1488 1488 1489 1489 1490 1490 1490 1490 1490 1490 1490 1490 1489 1488 1487 1486 1485 1484 1483 1482 1481 1480 1479 1478 1477 1476 1475 1474 1473 1471 1470 1468 1467 1465 1464
1480 1481 1481 1482 1483 1483 1484 1485 1485 1486 1487 1488 1488 1488 1488 1489 1489 1489 1488 1489 1488 1487 1486 1485 1484 1484 1483 1481 1480 1480 1479 1478 1477 1476 1475 1474 1473 1471 1470 1469 1467 1466 1464 1463
1480 1480 1481 1481 1482 1482 1483 1484 1484 1485 1486 1486 1487 1487 1487 1487 1487 1487 1487 1487 1486 1485 1484 1484 1483 1482 1480 1480 1479 1478 1477 1476 1475 1474 1473 1472 1471 1470 1468 1467 1466 1464 1463 1461
1480 1480 1480 1480 1481 1482 1482 1483 1483 1483 1484 1484 1485 1485 1485 1485 1485 1485 1485 1485 1484 1483 1482 1482 1481 1480 1478 1478 1477 1476 1475 1474 1473 1472 1472 1470 1469 1468 1467 1465 1464 1462 1461 1459
1479 1479 1479 1480 1480 1481 1481 1481 1482 1482 1482 1483 1483 1483 1483 1484 1484 1484 1483 1482 1481 1481 1480 1480 1479 1477 1477 1476 1475 1474 1473 1472 1472 1471 1470 1468 1467 1466 1464 1463 1462 1460 1458 1456
1478 1478 1478 1479 1479 1480 1480 1480 1480 1480 1482 1482 1482 1482 1482 1482 1481 1481 1480 1480 1479 1479 1478 1477 1476 1475 1475 1474 1473 1472 1471 1470 1469 1468 1467 1466 1465 1464 1462 1460 1459 1457 1455 1453
1477 1477 1477 1478 1478 1479 1479 1479 1479 1479 1480 1480 1480 1480 1480 1479 1479 1478 1478 1478 1477 1476 1476 1475 1474 1473 1473 1472 1471 1470 1469 1468 1467 1466 1465 1463 1462 1461 1459 1457 1456 1454 1452 1450
1476 1476 1476 1477 1477 1478 1478 1478 1478 1478 1478 1477 1478 1478 1477 1477 1476 1476 1476 1476 1475 1475 1474 1474 1473 1472 1471 1470 1469 1468 1467 1465 1464 1463 1462 1461 1459 1458 1456 1454 1453 1451 1449 1447